Location: Cisewo
(53.3833°N, 14.9000°E)
Time: 13:00:49
(UTC+00:00)

Cosmos 2263 Rocket - Pass Details

Date: 18 April 2021
Orbit: 824 x 848 km, 71.0° (Epoch: 16 May)

Event Time Altitude Azimuth Distance (km) Brightness Sun altitude
Exits shadow 23:24:25 37° 259° (W) 1,271 2.9 -25.2°
Maximum altitude 23:26:14 51° 310° (NW) 1,034 2.8 -25.2°
Drops below altitude 10° 23:31:41 10° 26° (NNE) 2,441 5.5 -25.1°
Sets 23:34:12 0° 32° (NNE) 3,381 6.4 -25.0°
